Alesund/Vigra

Airport
ICAO code: 
ENAL
Summary
ICAO Region: 
EUR
Territory: 
Location: 
Alesund/Vigra,
Elevation: 
69 ft
Coordinates: 
Aerial View: 
62° 33' 45" N, 6° 7' 10.92" E
Metar
Observation
ENAL 260420Z AUTO 24019KT 9999 FEW070/// BKN120/// 05/02 Q1005
Station
Alesund / Vigra
Date/Time
2022-01-26 04:20:00
Wind direction
240°
Wind speed
19 kts
Lowest cloud amount
few clouds
Temperature
5°C
Dew point
2°C
Humidity
80%
QNH
1005 hPa
Weather condition
n/a

Description

Airport serving Alesund, Norway.

Climatology

Temperate Marine climate/Oceanic climate (Köppen climate classification Cfb). Moderately cool summer and comparatively warm winter with a temperature range of only 14°C. Prevailing south-westerly winds from the Atlantic Ocean.

Runways

Designator Length Width Surface Rops
7/25 2314 45 ASP Yes/Yes
Airport map: 
Aerial View: 

SKYbrary Partners:

Safety knowledge contributed by: